www.pogodaiklimat.ru

Погода и климат >> Архив погоды >> Россия >> Якутия >> Покровск


ПОГОДА в Покровске

  • Прогноз погоды в Покровске
  • Монитор погоды в Покровске

АРХИВ ПОГОДЫ в Покровске

Время (UTC), дата Ветер
(напр.,м/с)
 
Видим.   Явления Облачность Т
(С)
Тd
(С)
f
(%)
Тe
(С)
Тes
(С)
Комфортность P
(гПа)
Po
(гПа)
Тmin
(С)
Tmax
(С)
R
(мм)
R24
(мм)
S
(см)
06 19.08 ЮВ 2 20 км слаб. дождь 10/0 600 м
[As op]
+14.8 +11.5 81 +14 +16 1014.9 1000.5
09 19.08 В 3 50 км {дождь} 10/0
[As op]
+14.8 +11.1 78 +14 +14 1015.3 1000.9
12 19.08 СВ 2 50 км {дождь} 10/0
[As op]
+14.8 +11.5 81 +14 +14 1015.3 1000.9 +17.8 0.0
15 19.08 В 2 20 км 10/0
[Ac trans Ci fib]
+13.6 +11.0 84 +13 +13 1015.4 1001.0
18 19.08 В 1 20 км 10/0
[Ac trans Ci fib]
+12.8 +11.5 92 +13 +13 1015.8 1001.3
21 19.08 СВ 2 50 км слаб. дождь 10/0
[As op]
+12.2 +11.8 97 +11 +11 1015.8 1001.3
00 20.08 В 2 50 км слаб. дождь 10/0 600 м
[As op]
+13.2 +12.1 93 +12 +13 1015.9 1001.4 +12.2 0.6
03 20.08 В 3 50 км слаб. дождь 10/0
[As op]
+14.1 +12.6 91 +13 +15 1015.8 1001.4
06 20.08 В 3 20 км слаб. дождь 10/0 600 м
[As op]
+14.5 +12.7 89 +14 +15 1016.0 1001.6
09 20.08 СВ 3 50 км слаб. дождь 10/0
[As op]
+14.5 +13.1 91 +14 +14 1016.3 1001.9
12 20.08 В 3 50 км {дождь} 10/8 600 м
[Sc As op]
+14.2 +12.4 89 +13 +13 1013.7 1002.3 +15.7 3
15 20.08 В 2 20 км 6/0
[As op]
+13.6 +11.9 89 +13 +13 1017.1 1002.7
18 20.08 В 2 20 км 6/0
[As op]
+12.8 +11.9 94 +12 +12 1017.6 1003.1
21 20.08 СВ 2 50 км 10/10 600 м
[Sc]
+13.2 +11.9 92 +12 +12 1018.0 1003.5
00 21.08 СВ 2 50 км {дождь} 10/10 600 м
[Sc]
+13.5 +13.3 99 +13 +13 1018.2 1003.8 +12.0 0.0
03 21.08 СВ 3 50 км 9/9 600 м
[Cu Sc]
+16.4 +13.4 82 +16 +17 1017.9 1003.6
06 21.08 СВ 3 50 км 10/10 600 м
[Sc]
+16.9 +13.2 79 +17 +17 1017.6 1003.3
09 21.08 СВ 2 50 км 10/10 600 м
[Sc]
+17.0 +12.7 76 +17 +17 1017.5 1003.2
12 21.08 С 2 50 км 10/10 1000 м
[Sc]
+15.2 +12.1 82 +15 +15 1017.7 1003.3 +17.3
15 21.08 З 1 20 км 10/10 1000 м
[Sc]
+13.6 +12.3 92 +14 +14 1017.3 1002.9
18 21.08 З 1 20 км 10/10 1000 м
[Sc]
+13.2 +11.9 92 +13 +13 1017.2 1002.7
21 21.08 С 2 50 км 10/10 1000 м
[Sc]
+14.1 +12.1 88 +14 +14 1016.9 1002.5
00 22.08 СВ 3 50 км 10/10 600 м
[Sc]
+15.5 +13.5 88 +15 +15 1016.8 1002.5 +12.9
03 22.08 В 2 50 км 10/6 1000 м
[Sc Ac und]
+18.2 +14.4 78 +19 +20 1016.0 1001.8
06 22.08 СВ 3 50 км 10/4 600 м
[Cu med, cong Ac trans Ci fib]
+20.6 +14.6 68 +24 +25 комфорт 1015.1 1001.0
09 22.08 С 2 50 км 8/3 600 м
[Cu med, cong Ac trans]
+20.1 +13.9 67 +23 +23 комфорт 1014.5 1000.4
12 22.08 СВ 1 50 км 10/0
[Ac und]
+16.6 +13.8 84 +17 +17 1014.6 1000.3 +22.2
15 22.08 З 1 20 км 6/0
[Ac trans]
+12.2 +11.3 94 +12 +12 1014.9 1000.3
18 22.08 З 1 20 км 8/0
[Ac trans]
+11.6 +10.6 94 +11 +11 1014.8 1000.3
21 22.08 З 1 50 км 10/0
[Ac und]
+11.3 +10.7 96 +11 +11 1015.0 1000.4
00 23.08 В 1 50 км 10/0
[Ac As Ci fib]
+15.5 +14.3 93 +16 +18 1014.6 1000.3 +11.0
03 23.08 штиль 0 50 км 10/1 600 м
[Cu hum Ac trans Ci fib]
+21.5 +14.0 62 +24 +30 комфорт 1013.5 999.5
06 23.08 Ю 3 50 км 10/3 600 м
[Cu med, cong Ci fib]
+24.2 +11.9 46 +26 +29 жарко 1012.1 998.2
09 23.08 З 1 50 км 10/3 600 м
[Cb calv Ac trans Ci fib]
+22.0 +13.4 58 +25 +25 комфорт 1011.6 997.6
12 23.08 С 1 50 км 10/0
[Ac trans Ci fib]
+16.8 +15.1 90 +18 +18 1012.4 998.1 +25.2
15 23.08 ЮЗ 3 20 км ясно +11.6 +11.4 99 +10 +10 1012.6 998.1
18 23.08 ЮЗ 2 20 км ясно +8.4 +8.4 100 +6 +6 1012.5 997.8
21 23.08 ЮЗ 1 10 км дымка 10/0
[Ci fib]
+7.2 +7.2 100 +6 +6 1012.4 997.6
00 24.08 штиль 0 50 км {туман} 10/3 600 м
[Cu hum Ac trans Ci fib]
+13.9 +13.4 97 +13 +16 1012.0 997.6 +6.8
03 24.08 ЮЗ 1 50 км в посл. час гроза 10/6 600 м
[Cb calv Ac trans]
+18.0 +14.9 82 +19 +21 1011.9 997.7
06 24.08 З 2 50 км в посл. час ливневой дождь {гроза} 10/4 600 м
[Cb calv Ci fib]
+15.3 +14.1 93 +15 +18 1010.3 996.1
09 24.08 Ю 2 50 км 10/4 600 м
[Cu Sc Ci fib]
+18.1 +15.6 85 +19 +19 1010.1 996.0
12 24.08 З 1 50 км 8/4 600 м
[Sc Ci fib]
+13.3 +12.4 94 +13 +13 1010.4 995.9 +18.9 4
15 24.08 З 3 20 км 10/4 1000 м
[Sc Ci fib]
+10.2 +9.6 96 +8 +8 1009.6 995.1
18 24.08 З 1 20 км 10/0
[Ci fib]
+7.7 +7.1 96 +7 +7 1009.7 995.0
21 24.08 З 1 500 м туман 10/0
[Ci fib]
+5.9 +5.9 100 +5 +5 1010.3 995.5
00 25.08 ЮЗ 1 200 м туман ?/? +11.6 +11.6 100 +11 +11 1009.3 994.9 +5.5
03 25.08 ЮЗ 1 50 км {туман} 8/5 600 м
[Cb calv Ac trans Ci fib]
+17.5 +14.2 81 +19 +22 1008.4 994.3
06 25.08 З 2 50 км {туман} 9/6 600 м
[Cb calv Ac trans Ci fib]
+18.0 +11.8 67 +19 +20 1007.4 993.3
09 25.08 ЮЗ 1 50 км 10/8 600 м
[Cb calv Ac trans Ci fib]
+18.6 +13.1 70 +20 +20 1007.2 993.1
12 25.08 З 1 50 км 8/8 600 м
[Cb calv Ac trans]
+14.2 +11.0 81 +15 +15 1007.6 993.3 +19.7
15 25.08 З 2 20 км 8/0
[Ac trans]
+10.6 +8.9 89 +9 +9 1007.9 993.4
18 25.08 З 1 20 км 4/3 600 м
[Sc Ci fib]
+8.7 +7.6 93 +8 +8 1008.2 993.6
21 25.08 З 2 50 км 6/0
[Ac trans]
+6.3 +6.3 100 +4 +4 1009.1 994.4
00 26.08 ЮЗ 2 50 км 3/0
[Ac trans]
+14.6 +10.4 76 +14 +18 1009.2 994.9 +6.0
03 26.08 СЗ 4 50 км ясно +20.2 +8.8 48 +22 +27 комфорт 1008.5 994.5

 

Местоположение метеостанции Покровск (Якутия, Россия): широта 61.48 долгота 129.10 высота над уровнем моря 121 м.

В архиве по умолчанию представлена погода в Покровске за последнюю неделю. Архивные данные за месяц целиком и за предыдущие месяцы, начиная с января 2011 года, Вы можете получить, выбрав интересующий диапазон дат из раскрывающегося списка и нажав кнопку "Ввод!".


*Определитесь, кто Вы:
робот инопланетянин человек

Внимание! Время в таблицах - всемирное. Для получения местного времени необходимо прибавить поправку, которая равна 9 ч.

Смотрите также архив погоды в соседних городах и на ближайших метеорологических станциях:

Погода в Якутске (Якутия, Россия) (64 км)
Погода в Тегюльте (Якутия, Россия) (122 км)
Погода в Намцах (Якутия, Россия) (140 км)
Погода в Бердигестяхе (Якутия, Россия) (141 км)
Погода в Амге (Якутия, Россия) (163 км)
Погода в Чурапче (Якутия, Россия) (194 км)
Погода в Исити (Якутия, Россия) (217 км)
Погода в Батамае (Якутия, Россия) (227 км)
Погода в Буяге (Якутия, Россия) (232 км)
Погода в Тонгулахе (Якутия, Россия) (247 км)

Пояснения к столбцам:

Ветер - указаны скорость ветра в м/с - средняя за 10 мин, порывы в срок и между сроками (в фигурных скобках) и направление, откуда дует ветер: С - северный, СВ - северо-восточный, В - восточный, ЮВ - юго-восточный, Ю - южный, ЮЗ - юго-западный, З - западный, СЗ - северо-западный.
Видимость - горизонтальная дальность видимости в метрах или километрах. При видимости от 1 до 10 км при отсутствии осадков обычно наблюдается дымка, при ухудшении видимости до 1 км и менее - туман. В сухую погоду видимость может ухудшаться дымом, пылью или мглою.
Явления - указаны атмосферные явления, наблюдавшиеся в срок или в последний час перед сроком; фигурными скобками обозначены явления, наблюдавшиеся между сроками (за 1-3 часа до срока); квадратными скобками обозначены град или гололедные отложения с указанием их диаметра в мм.
Облачность - указаны через наклонную черту общая и нижняя облачность в баллах и высота нижней границы облаков в метрах; квадратными скобками обозначены формы облаков: Ci - перистые, Cs - перисто-слоистые, Cc - перисто-кучевые, Ac - высококучевые, As - высокослоистые, Sc - слоисто-кучевые, Ns - слоисто-дождевые, Cu - кучевые, Cb - кучево-дождевые. Подробнее классификацию облаков см. в Атласе облаков (PDF).
T - Температура воздуха - температура, измеренная на высоте 2 м над землей.
Td - Температура точки росы - температура, при понижении до которой содержащийся в воздухе водяной пар достигнет насыщения.
f - Относительная влажность воздуха - влажноcть воздуха, измеренная на высоте 2 м над землей.
Te - Эффективная температура - температура, которую ощущает одетый по сезону человек в тени. Характеристика душности погоды. При расчете учитывается влияние влажности воздуха и скорости ветра на теплоощущения человека.
Tes - Эффективная температура на солнце - температура, которую ощущает человек, с поправкой на солнечный нагрев. Характеристика знойности погоды. Зависит от высоты солнца над горизонтом, облачности и скорости ветра. Ночью, в пасмурную погоду, а также при ветре 12 м/с и более поправка равна нулю.
P - Атмосферное давление - приведенное к уровню моря атмосферное давление.
Po - Атмосферное давление - измеренное на уровне метеостанции атмосферное давление.
Tmin - Минимальная температура - минимум температуры воздуха на высоте 2 м над землей.
Tmax - Максимальная температура - максимум температуры воздуха на высоте 2 м над землей.
R - Количество осадков - Количество выпавших осадков за период времени, мм. При наведении курсора мыши на число - период времени, за который выпало указанное количество осадков.
R24 - Количество осадков - Количество выпавших осадков за 24 часа, мм.
S - Снежный покров - Высота снежного покрова, см. При наведении курсора мыши на число - состояние снежного покрова и степень покрытия местности в баллах.